QPF
0.01 0.01 0.01 0.01 0.01 0.01 0.01 0.01 0.02 0.01 0.01 0.01 0.00 0.00 0.00 0.01 0.00 0.00 0.01 0.01 0.01 0.01 0.02 0.01 0.01 0.01 0.01 0.01 0.01 0.01 0.01 0.01 0.01 0.01 0.01 0.02 0.01 0.01 0.01 0.01 0.01 0.01 0.01 0.01
0.01 0.01 0.01 0.01 0.01 0.01 0.00 0.00 0.01 0.01 0.01 0.00 0.00 0.00 0.00 0.01 0.01 0.00 0.00 0.01 0.01 0.02 0.02 0.02 0.02 0.02 0.01 0.01 0.01 0.01 0.01 0.01 0.01 0.01 0.01 0.02 0.01 0.01 0.01 0.01 0.01 0.01 0.01 0.01
0.02 0.01 0.01 0.01 0.00 0.00 0.00 0.00 0.01 0.01 0.01 0.00 0.00 0.00 0.01 0.01 0.01 0.01 0.00 0.00 0.01 0.01 0.02 0.02 0.02 0.03 0.03 0.03 0.02 0.02 0.02 0.02 0.02 0.02 0.02 0.01 0.01 0.01 0.01 0.01 0.01 0.01 0.01 0.01
0.03 0.02 0.02 0.01 0.00 0.00 0.00 0.00 0.00 0.01 0.00 0.01 0.01 0.01 0.01 0.01 0.01 0.01 0.00 0.00 0.00 0.01 0.01 0.02 0.02 0.03 0.03 0.03 0.02 0.02 0.02 0.02 0.03 0.02 0.02 0.02 0.01 0.01 0.01 0.01 0.01 0.01 0.01 0.01
0.03 0.02 0.01 0.00 0.00 0.00 0.00 0.00 0.01 0.00 0.00 0.00 0.00 0.01 0.01 0.01 0.01 0.00 0.00 0.00 0.00 0.00 0.01 0.01 0.02 0.02 0.03 0.02 0.02 0.02 0.03 0.03 0.03 0.02 0.02 0.02 0.02 0.02 0.01 0.02 0.01 0.01 0.01 0.01
0.03 0.03 0.01 0.01 0.00 0.00 0.00 0.01 0.01 0.00 0.00 0.00 0.00 0.01 0.01 0.01 0.01 0.00 0.00 0.00 0.00 0.01 0.01 0.01 0.01 0.02 0.02 0.01 0.01 0.02 0.04 0.04 0.03 0.03 0.03 0.03 0.02 0.02 0.02 0.01 0.01 0.01 0.01 0.01
0.03 0.03 0.01 0.01 0.00 0.00 0.01 0.01 0.00 0.00 0.00 0.00 0.01 0.02 0.02 0.01 0.01 0.00 0.00 0.00 0.00 0.00 0.00 0.00 0.00 0.01 0.01 0.01 0.01 0.01 0.02 0.03 0.02 0.03 0.02 0.02 0.03 0.02 0.02 0.01 0.01 0.01 0.01 0.01
0.03 0.03 0.02 0.01 0.00 0.01 0.01 0.01 0.00 0.00 0.00 0.00 0.00 0.01 0.01 0.01 0.01 0.00 0.00 0.00 0.00 0.00 0.00 0.00 0.00 0.00 0.00 0.01 0.01 0.01 0.01 0.01 0.02 0.02 0.02 0.02 0.03 0.03 0.03 0.02 0.02 0.02 0.01 0.01
0.03 0.02 0.01 0.00 0.01 0.01 0.01 0.01 0.00 0.00 0.00 0.00 0.00 0.01 0.01 0.01 0.01 0.01 0.00 0.00 0.00 0.00 0.00 0.00 0.00 0.00 0.00 0.00 0.01 0.01 0.01 0.01 0.01 0.02 0.02 0.03 0.03 0.03 0.03 0.02 0.02 0.02 0.02 0.01
0.02 0.01 0.01 0.01 0.01 0.01 0.01 0.01 0.01 0.00 0.00 0.00 0.00 0.00 0.01 0.01 0.01 0.01 0.00 0.00 0.00 0.00 0.00 0.00 0.00 0.00 0.00 0.00 0.00 0.00 0.01 0.01 0.01 0.01 0.03 0.03 0.03 0.03 0.02 0.02 0.01 0.01 0.01 0.01
0.01 0.01 0.01 0.01 0.01 0.01 0.00 0.00 0.00 0.00 0.00 0.00 0.00 0.00 0.00 0.01 0.01 0.01 0.01 0.00 0.00 0.00 0.00 0.00 0.00 0.00 0.00 0.00 0.00 0.00 0.01 0.01 0.01 0.01 0.02 0.03 0.03 0.03 0.02 0.01 0.01 0.01 0.01 0.01
0.02 0.01 0.01 0.01 0.01 0.00 0.00 0.00 0.00 0.00 0.00 0.00 0.00 0.00 0.00 0.01 0.01 0.01 0.01 0.00 0.00 0.00 0.00 0.00 0.00 0.00 0.00 0.00 0.00 0.00 0.01 0.01 0.01 0.01 0.02 0.03 0.03 0.03 0.03 0.02 0.02 0.01 0.01 0.01
0.02 0.01 0.01 0.00 0.00 0.00 0.00 0.00 0.00 0.00 0.00 0.00 0.00 0.00 0.00 0.00 0.00 0.00 0.01 0.00 0.00 0.00 0.00 0.00 0.00 0.00 0.00 0.00 0.00 0.00 0.01 0.01 0.01 0.01 0.02 0.02 0.03 0.03 0.02 0.03 0.02 0.02 0.01 0.01
0.01 0.01 0.00 0.00 0.00 0.00 0.00 0.00 0.00 0.00 0.00 0.00 0.00 0.00 0.00 0.00 0.00 0.00 0.00 0.00 0.01 0.00 0.00 0.00 0.00 0.00 0.00 0.00 0.00 0.00 0.01 0.01 0.01 0.01 0.01 0.02 0.03 0.03 0.02 0.02 0.02 0.02 0.01 0.01
0.00 0.00 0.00 0.00 0.00 0.00 0.00 0.00 0.00 0.00 0.00 0.00 0.00 0.00 0.00 0.00 0.00 0.00 0.00 0.00 0.00 0.01 0.00 0.00 0.00 0.00 0.00 0.01 0.01 0.01 0.01 0.01 0.01 0.01 0.01 0.01 0.02 0.02 0.02 0.02 0.02 0.01 0.01 0.01
0.00 0.00 0.00 0.00 0.00 0.00 0.00 0.00 0.00 0.00 0.00 0.00 0.00 0.00 0.00 0.00 0.00 0.00 0.00 0.00 0.00 0.00 0.00 0.00 0.00 0.00 0.01 0.01 0.01 0.01 0.01 0.01 0.02 0.02 0.02 0.02 0.02 0.02 0.02 0.02 0.02 0.02 0.01 0.01
0.00 0.00 0.00 0.00 0.00 0.00 0.00 0.00 0.00 0.01 0.01 0.01 0.00 0.00 0.00 0.00 0.00 0.00 0.00 0.00 0.00 0.00 0.00 0.00 0.00 0.00 0.01 0.01 0.02 0.01 0.01 0.01 0.02 0.02 0.02 0.02 0.02 0.02 0.02 0.02 0.02 0.02 0.01 0.01
0.00 0.00 0.00 0.00 0.00 0.00 0.00 0.00 0.01 0.01 0.01 0.01 0.01 0.01 0.01 0.01 0.00 0.00 0.00 0.00 0.00 0.00 0.00 0.00 0.00 0.00 0.00 0.01 0.01 0.01 0.01 0.02 0.02 0.03 0.02 0.02 0.02 0.02 0.02 0.02 0.02 0.02 0.02 0.02
0.00 0.00 0.00 0.00 0.00 0.00 0.00 0.00 0.01 0.01 0.01 0.01 0.01 0.01 0.01 0.01 0.01 0.01 0.00 0.00 0.00 0.00 0.00 0.00 0.00 0.00 0.00 0.01 0.01 0.02 0.01 0.02 0.02 0.02 0.03 0.02 0.02 0.02 0.02 0.02 0.02 0.02 0.01 0.01
0.00 0.00 0.00 0.00 0.00 0.00 0.00 0.00 0.01 0.01 0.01 0.01 0.01 0.01 0.01 0.01 0.01 0.01 0.01 0.01 0.01 0.01 0.00 0.00 0.00 0.00 0.00 0.01 0.01 0.02 0.02 0.02 0.02 0.02 0.03 0.02 0.02 0.02 0.02 0.02 0.02 0.02 0.01 0.01
0.00 0.00 0.00 0.00 0.01 0.00 0.00 0.00 0.01 0.01 0.01 0.01 0.01 0.01 0.01 0.01 0.01 0.01 0.01 0.01 0.01 0.01 0.01 0.01 0.01 0.01 0.01 0.01 0.01 0.01 0.01 0.01 0.01 0.02 0.02 0.02 0.02 0.02 0.01 0.01 0.01 0.01 0.01 0.01
0.01 0.01 0.01 0.01 0.01 0.01 0.01 0.01 0.01 0.01 0.01 0.01 0.01 0.02 0.02 0.01 0.01 0.01 0.01 0.01 0.01 0.01 0.01 0.01 0.01 0.01 0.01 0.01 0.01 0.01 0.01 0.01 0.01 0.01 0.01 0.01 0.01 0.01 0.01 0.01 0.01 0.01 0.01 0.01
0.01 0.01 0.01 0.01 0.01 0.00 0.00 0.00 0.01 0.01 0.01 0.01 0.01 0.02 0.01 0.01 0.01 0.01 0.01 0.01 0.01 0.01 0.01 0.01 0.01 0.01 0.01 0.01 0.01 0.01 0.01 0.01 0.00 0.01 0.01 0.01 0.01 0.01 0.01 0.01 0.01 0.01 0.01 0.01
0.00 0.00 0.00 0.01 0.00 0.00 0.00 0.00 0.01 0.01 0.01 0.01 0.01 0.01 0.01 0.01 0.01 0.01 0.01 0.01 0.01 0.01 0.01 0.01 0.01 0.01 0.01 0.01 0.01 0.01 0.00 0.00 0.00 0.00 0.01 0.01 0.01 0.01 0.01 0.01 0.01 0.01 0.01 0.01
0.00 0.00 0.00 0.00 0.01 0.01 0.01 0.01 0.00 0.01 0.00 0.00 0.01 0.01 0.01 0.01 0.01 0.01 0.01 0.01 0.01 0.01 0.01 0.01 0.01 0.01 0.01 0.01 0.01 0.01 0.00 0.00 0.00 0.01 0.01 0.01 0.01 0.01 0.01 0.01 0.01 0.01 0.01 0.01
0.00 0.00 0.00 0.00 0.01 0.01 0.01 0.01 0.01 0.01 0.00 0.00 0.00 0.01 0.01 0.01 0.01 0.01 0.01 0.01 0.01 0.01 0.01 0.01 0.01 0.01 0.01 0.01 0.01 0.01 0.00 0.00 0.00 0.01 0.01 0.01 0.00 0.00 0.01 0.01 0.01 0.01 0.01 0.01
0.00 0.01 0.01 0.01 0.01 0.01 0.01 0.01 0.01 0.01 0.01 0.01 0.01 0.01 0.01 0.01 0.01 0.01 0.01 0.01 0.01 0.01 0.01 0.01 0.01 0.01 0.01 0.01 0.01 0.00 0.00 0.00 0.00 0.00 0.01 0.01 0.01 0.01 0.01 0.01 0.01 0.01 0.01 0.01
MSLP
1016.07 1016.22 1016.40 1016.56 1016.67 1016.71 1016.65 1016.51 1016.30 1016.06 1015.80 1015.58 1015.41 1015.33 1015.34 1015.43 1015.57 1015.73 1015.89 1016.00 1016.05 1016.00 1015.87 1015.66 1015.39 1015.09 1014.79 1014.52 1014.29 1014.13 1014.04 1014.02 1014.07 1014.18 1014.33 1014.50 1014.68 1014.86 1015.04 1015.22 1015.40 1015.59 1015.81 1016.07
1017.16 1017.35 1017.56 1017.74 1017.87 1017.92 1017.87 1017.73 1017.52 1017.25 1016.97 1016.70 1016.47 1016.31 1016.21 1016.18 1016.20 1016.24 1016.29 1016.30 1016.27 1016.18 1016.02 1015.80 1015.53 1015.23 1014.93 1014.64 1014.39 1014.20 1014.07 1014.01 1014.02 1014.09 1014.20 1014.33 1014.49 1014.64 1014.79 1014.94 1015.08 1015.22 1015.39 1015.60
1018.01 1018.21 1018.42 1018.61 1018.73 1018.77 1018.72 1018.58 1018.36 1018.08 1017.77 1017.46 1017.18 1016.94 1016.75 1016.62 1016.52 1016.46 1016.40 1016.33 1016.24 1016.11 1015.94 1015.72 1015.46 1015.18 1014.89 1014.62 1014.36 1014.16 1014.00 1013.91 1013.88 1013.92 1013.99 1014.11 1014.24 1014.38 1014.51 1014.63 1014.74 1014.85 1014.97 1015.13
1018.60 1018.78 1018.96 1019.12 1019.21 1019.23 1019.17 1019.01 1018.78 1018.50 1018.17 1017.84 1017.51 1017.21 1016.95 1016.72 1016.53 1016.37 1016.22 1016.08 1015.94 1015.78 1015.60 1015.39 1015.16 1014.91 1014.65 1014.39 1014.14 1013.93 1013.76 1013.65 1013.60 1013.61 1013.66 1013.76 1013.89 1014.02 1014.15 1014.26 1014.35 1014.44 1014.53 1014.64
1018.96 1019.08 1019.20 1019.30 1019.35 1019.33 1019.23 1019.07 1018.83 1018.54 1018.21 1017.86 1017.50 1017.16 1016.83 1016.52 1016.25 1016.00 1015.78 1015.57 1015.38 1015.20 1015.01 1014.82 1014.61 1014.39 1014.16 1013.93 1013.70 1013.49 1013.32 1013.19 1013.13 1013.12 1013.17 1013.26 1013.39 1013.53 1013.66 1013.78 1013.88 1013.96 1014.03 1014.11
1019.14 1019.17 1019.21 1019.23 1019.21 1019.14 1019.01 1018.83 1018.58 1018.29 1017.96 1017.59 1017.21 1016.83 1016.45 1016.08 1015.73 1015.41 1015.11 1014.85 1014.62 1014.41 1014.21 1014.03 1013.85 1013.66 1013.46 1013.25 1013.04 1012.85 1012.67 1012.54 1012.46 1012.45 1012.49 1012.59 1012.72 1012.88 1013.04 1013.18 1013.30 1013.39 1013.46 1013.53
1019.20 1019.13 1019.06 1018.99 1018.90 1018.77 1018.61 1018.39 1018.13 1017.83 1017.49 1017.12 1016.72 1016.30 1015.87 1015.45 1015.04 1014.65 1014.29 1013.97 1013.69 1013.45 1013.25 1013.08 1012.91 1012.75 1012.58 1012.40 1012.21 1012.03 1011.86 1011.73 1011.64 1011.62 1011.66 1011.76 1011.90 1012.08 1012.27 1012.44 1012.59 1012.71 1012.80 1012.87
1019.17 1019.00 1018.84 1018.68 1018.51 1018.32 1018.10 1017.85 1017.57 1017.24 1016.88 1016.49 1016.07 1015.62 1015.15 1014.68 1014.21 1013.77 1013.35 1012.99 1012.68 1012.42 1012.21 1012.03 1011.89 1011.75 1011.60 1011.45 1011.29 1011.12 1010.96 1010.82 1010.73 1010.69 1010.72 1010.81 1010.97 1011.16 1011.37 1011.57 1011.76 1011.92 1012.04 1012.14
1019.08 1018.82 1018.57 1018.34 1018.10 1017.85 1017.57 1017.27 1016.94 1016.58 1016.19 1015.77 1015.31 1014.83 1014.33 1013.81 1013.31 1012.82 1012.37 1011.97 1011.64 1011.36 1011.15 1010.98 1010.85 1010.73 1010.62 1010.49 1010.34 1010.19 1010.03 1009.89 1009.78 1009.73 1009.74 1009.81 1009.96 1010.15 1010.37 1010.61 1010.83 1011.03 1011.20 1011.34
1018.91 1018.60 1018.30 1018.01 1017.70 1017.39 1017.05 1016.69 1016.30 1015.89 1015.45 1014.98 1014.49 1013.97 1013.44 1012.91 1012.38 1011.87 1011.40 1010.99 1010.64 1010.36 1010.15 1009.99 1009.88 1009.78 1009.68 1009.58 1009.45 1009.31 1009.15 1009.00 1008.87 1008.79 1008.77 1008.82 1008.93 1009.11 1009.33 1009.58 1009.83 1010.07 1010.29 1010.49
1018.68 1018.35 1018.02 1017.69 1017.33 1016.95 1016.55 1016.11 1015.65 1015.17 1014.68 1014.16 1013.63 1013.09 1012.54 1011.99 1011.46 1010.95 1010.49 1010.07 1009.73 1009.45 1009.25 1009.10 1009.00 1008.91 1008.84 1008.75 1008.64 1008.50 1008.34 1008.18 1008.03 1007.92 1007.86 1007.86 1007.94 1008.09 1008.29 1008.53 1008.79 1009.07 1009.33 1009.58
1018.39 1018.07 1017.75 1017.39 1016.99 1016.55 1016.07 1015.56 1015.02 1014.47 1013.91 1013.34 1012.78 1012.22 1011.66 1011.12 1010.60 1010.11 1009.66 1009.27 1008.93 1008.66 1008.46 1008.31 1008.21 1008.13 1008.06 1007.98 1007.88 1007.75 1007.59 1007.42 1007.26 1007.12 1007.01 1006.98 1007.01 1007.10 1007.27 1007.49 1007.76 1008.04 1008.34 1008.64
1018.07 1017.79 1017.47 1017.10 1016.66 1016.17 1015.62 1015.02 1014.41 1013.78 1013.16 1012.55 1011.96 1011.40 1010.85 1010.33 1009.84 1009.37 1008.95 1008.56 1008.23 1007.96 1007.74 1007.58 1007.46 1007.37 1007.29 1007.21 1007.12 1006.99 1006.84 1006.68 1006.50 1006.34 1006.21 1006.14 1006.12 1006.17 1006.29 1006.49 1006.73 1007.02 1007.34 1007.68
1017.75 1017.51 1017.21 1016.82 1016.35 1015.80 1015.18 1014.52 1013.83 1013.14 1012.46 1011.83 1011.23 1010.66 1010.14 1009.65 1009.18 1008.74 1008.32 1007.94 1007.59 1007.29 1007.04 1006.83 1006.67 1006.55 1006.45 1006.36 1006.26 1006.15 1006.01 1005.87 1005.71 1005.55 1005.41 1005.31 1005.26 1005.28 1005.36 1005.51 1005.73 1006.01 1006.33 1006.69
1017.46 1017.25 1016.95 1016.55 1016.05 1015.44 1014.76 1014.03 1013.28 1012.54 1011.84 1011.18 1010.58 1010.03 1009.53 1009.05 1008.61 1008.17 1007.75 1007.34 1006.95 1006.59 1006.27 1005.99 1005.76 1005.58 1005.43 1005.32 1005.22 1005.13 1005.03 1004.92 1004.80 1004.68 1004.56 1004.47 1004.41 1004.40 1004.45 1004.57 1004.76 1005.01 1005.33 1005.69
1017.20 1017.00 1016.69 1016.27 1015.73 1015.07 1014.34 1013.56 1012.77 1012.00 1011.28 1010.61 1010.02 1009.48 1008.99 1008.53 1008.09 1007.63 1007.18 1006.71 1006.24 1005.79 1005.36 1004.98 1004.66 1004.40 1004.20 1004.06 1003.97 1003.90 1003.85 1003.81 1003.75 1003.69 1003.63 1003.57 1003.53 1003.52 1003.56 1003.66 1003.81 1004.04 1004.34 1004.70
1016.95 1016.73 1016.41 1015.95 1015.37 1014.67 1013.90 1013.09 1012.27 1011.49 1010.76 1010.09 1009.51 1008.98 1008.50 1008.03 1007.56 1007.07 1006.54 1005.99 1005.41 1004.84 1004.29 1003.79 1003.35 1003.01 1002.75 1002.58 1002.50 1002.47 1002.48 1002.52 1002.56 1002.59 1002.61 1002.62 1002.62 1002.64 1002.68 1002.76 1002.90 1003.11 1003.38 1003.72
1016.67 1016.42 1016.05 1015.56 1014.94 1014.21 1013.41 1012.58 1011.76 1010.97 1010.24 1009.59 1009.01 1008.49 1007.99 1007.50 1006.98 1006.42 1005.81 1005.14 1004.45 1003.74 1003.05 1002.42 1001.88 1001.44 1001.13 1000.95 1000.88 1000.90 1000.99 1001.12 1001.27 1001.41 1001.53 1001.62 1001.69 1001.75 1001.81 1001.90 1002.03 1002.21 1002.47 1002.79
1016.31 1016.01 1015.60 1015.07 1014.41 1013.66 1012.85 1012.01 1011.19 1010.41 1009.70 1009.05 1008.48 1007.94 1007.42 1006.89 1006.31 1005.67 1004.96 1004.18 1003.35 1002.52 1001.71 1000.96 1000.32 999.82 999.46 999.27 999.22 999.30 999.47 999.70 999.96 1000.21 1000.43 1000.61 1000.76 1000.87 1000.97 1001.08 1001.21 1001.38 1001.61 1001.92
1015.84 1015.49 1015.03 1014.46 1013.79 1013.02 1012.21 1011.38 1010.57 1009.80 1009.10 1008.46 1007.88 1007.33 1006.77 1006.19 1005.54 1004.82 1004.01 1003.13 1002.20 1001.26 1000.35 999.52 998.81 998.26 997.89 997.70 997.69 997.81 998.06 998.37 998.72 999.07 999.39 999.66 999.87 1000.04 1000.18 1000.31 1000.44 1000.62 1000.85 1001.14
1015.26 1014.87 1014.38 1013.78 1013.09 1012.32 1011.51 1010.69 1009.90 1009.15 1008.46 1007.82 1007.23 1006.65 1006.05 1005.41 1004.70 1003.90 1003.02 1002.06 1001.06 1000.05 999.08 998.21 997.47 996.91 996.53 996.36 996.37 996.55 996.85 997.23 997.65 998.06 998.45 998.78 999.05 999.27 999.44 999.60 999.75 999.94 1000.17 1000.46
1014.63 1014.20 1013.68 1013.06 1012.36 1011.59 1010.80 1010.00 1009.22 1008.49 1007.80 1007.15 1006.54 1005.93 1005.29 1004.60 1003.83 1002.98 1002.05 1001.05 1000.01 998.98 998.00 997.12 996.39 995.84 995.48 995.33 995.37 995.57 995.90 996.31 996.76 997.21 997.63 998.00 998.31 998.56 998.76 998.94 999.12 999.33 999.57 999.87
1014.01 1013.55 1013.01 1012.37 1011.67 1010.92 1010.13 1009.35 1008.59 1007.85 1007.16 1006.50 1005.86 1005.22 1004.54 1003.80 1003.00 1002.12 1001.16 1000.15 999.12 998.10 997.15 996.30 995.61 995.08 994.76 994.63 994.68 994.89 995.22 995.63 996.08 996.52 996.94 997.31 997.63 997.90 998.12 998.33 998.54 998.77 999.05 999.37
1013.48 1013.00 1012.43 1011.79 1011.09 1010.34 1009.57 1008.80 1008.04 1007.31 1006.60 1005.92 1005.25 1004.56 1003.85 1003.08 1002.25 1001.35 1000.40 999.41 998.41 997.44 996.54 995.75 995.11 994.63 994.33 994.22 994.27 994.47 994.77 995.14 995.55 995.96 996.34 996.69 997.00 997.27 997.51 997.74 997.99 998.25 998.56 998.92
1013.10 1012.59 1012.01 1011.36 1010.65 1009.90 1009.14 1008.37 1007.61 1006.87 1006.14 1005.43 1004.73 1004.00 1003.25 1002.45 1001.60 1000.70 999.77 998.81 997.87 996.97 996.14 995.42 994.84 994.41 994.14 994.03 994.07 994.22 994.47 994.78 995.13 995.47 995.81 996.12 996.40 996.66 996.91 997.17 997.44 997.75 998.10 998.50
1012.89 1012.36 1011.75 1011.09 1010.37 1009.62 1008.85 1008.07 1007.30 1006.54 1005.79 1005.05 1004.30 1003.54 1002.75 1001.93 1001.07 1000.18 999.27 998.36 997.48 996.65 995.89 995.25 994.72 994.33 994.08 993.97 993.98 994.08 994.27 994.50 994.76 995.03 995.30 995.56 995.81 996.06 996.32 996.59 996.90 997.25 997.65 998.09
1012.84 1012.27 1011.64 1010.95 1010.21 1009.45 1008.67 1007.88 1007.09 1006.31 1005.53 1004.75 1003.96 1003.16 1002.34 1001.50 1000.64 999.76 998.88 998.02 997.20 996.44 995.75 995.17 994.69 994.33 994.09 993.97 993.94 993.99 994.10 994.25 994.43 994.63 994.83 995.04 995.25 995.49 995.75 996.05 996.39 996.77 997.21 997.69
Thickness
5426 5436 5438 5437 5439 5442 5438 5441 5442 5457 5462 5471 5473 5473 5474 5474 5474 5474 5474 5475 5475 5475 5475 5477 5479 5481 5483 5484 5484 5485 5485 5484 5485 5485 5485 5484 5483 5483 5483 5482 5483 5483 5483 5483
5414 5427 5430 5431 5436 5438 5438 5441 5444 5449 5456 5468 5469 5466 5465 5464 5465 5465 5466 5467 5468 5468 5468 5470 5471 5473 5474 5475 5476 5476 5476 5475 5475 5475 5475 5474 5474 5473 5473 5473 5473 5473 5473 5472
5408 5415 5416 5418 5433 5434 5434 5440 5442 5442 5451 5454 5453 5455 5455 5455 5455 5456 5456 5459 5460 5460 5460 5461 5463 5465 5465 5467 5468 5467 5467 5467 5466 5466 5466 5465 5465 5463 5463 5463 5463 5463 5463 5462
5395 5396 5393 5432 5444 5442 5437 5438 5439 5440 5443 5445 5444 5445 5447 5448 5448 5447 5449 5450 5451 5451 5452 5454 5455 5456 5457 5458 5459 5459 5458 5458 5458 5457 5457 5456 5455 5455 5454 5454 5453 5454 5453 5452
5386 5388 5405 5430 5434 5430 5424 5426 5433 5433 5435 5436 5435 5436 5438 5442 5442 5440 5441 5442 5442 5443 5445 5446 5447 5448 5449 5450 5450 5450 5449 5449 5450 5449 5449 5448 5447 5446 5445 5445 5444 5445 5444 5443
5382 5384 5394 5422 5424 5425 5419 5412 5425 5425 5425 5425 5423 5419 5426 5432 5432 5432 5433 5433 5434 5436 5437 5438 5439 5440 5440 5441 5441 5441 5441 5441 5442 5442 5442 5440 5439 5438 5437 5437 5436 5436 5435 5434
5377 5380 5397 5412 5415 5414 5403 5409 5416 5417 5416 5416 5414 5414 5418 5421 5422 5423 5425 5426 5427 5428 5429 5430 5431 5432 5431 5432 5433 5434 5433 5433 5434 5434 5434 5433 5432 5431 5430 5429 5428 5427 5426 5426
5375 5377 5390 5403 5402 5399 5402 5407 5408 5409 5409 5408 5409 5410 5411 5412 5413 5414 5415 5418 5419 5419 5420 5422 5423 5423 5423 5424 5425 5425 5425 5425 5425 5425 5425 5425 5424 5422 5421 5421 5419 5418 5418 5417
5382 5389 5398 5397 5397 5399 5400 5399 5400 5400 5402 5402 5400 5401 5403 5404 5404 5405 5407 5408 5409 5410 5411 5412 5414 5415 5415 5416 5417 5417 5417 5417 5417 5417 5417 5417 5416 5415 5414 5413 5412 5411 5410 5410
5379 5388 5393 5392 5393 5393 5393 5392 5393 5393 5394 5394 5392 5394 5394 5395 5395 5396 5397 5398 5400 5401 5402 5404 5405 5406 5407 5408 5408 5408 5408 5408 5409 5409 5409 5408 5408 5407 5406 5406 5405 5404 5404 5402
5370 5379 5383 5387 5385 5385 5385 5385 5385 5385 5386 5385 5385 5385 5386 5386 5387 5388 5389 5390 5391 5392 5394 5396 5397 5397 5398 5399 5399 5399 5399 5399 5400 5400 5401 5400 5400 5400 5400 5400 5399 5398 5397 5395
5369 5376 5374 5377 5380 5379 5378 5377 5377 5376 5377 5377 5377 5377 5378 5378 5379 5380 5381 5382 5383 5384 5386 5387 5388 5389 5390 5390 5390 5390 5390 5391 5391 5392 5392 5392 5391 5391 5392 5392 5392 5391 5389 5388
5370 5371 5371 5372 5372 5372 5370 5370 5370 5369 5368 5368 5370 5370 5370 5371 5371 5372 5373 5374 5375 5376 5377 5379 5380 5381 5382 5382 5382 5382 5382 5382 5382 5383 5383 5383 5383 5383 5382 5382 5382 5382 5381 5380
5365 5364 5364 5365 5363 5363 5362 5362 5362 5361 5361 5362 5362 5363 5363 5364 5364 5365 5366 5367 5367 5368 5369 5370 5372 5372 5373 5374 5374 5373 5373 5374 5374 5375 5375 5375 5375 5375 5374 5374 5373 5372 5372 5371
5359 5358 5357 5356 5355 5356 5355 5354 5353 5353 5354 5355 5355 5356 5357 5357 5357 5358 5359 5359 5360 5360 5361 5363 5363 5364 5365 5365 5366 5366 5366 5366 5366 5367 5367 5367 5367 5366 5366 5365 5364 5363 5362 5362
5352 5352 5350 5349 5348 5349 5348 5347 5346 5346 5347 5348 5348 5349 5349 5350 5350 5351 5352 5352 5353 5353 5353 5354 5355 5356 5357 5357 5357 5358 5358 5359 5359 5359 5359 5359 5358 5358 5358 5357 5356 5355 5354 5354
5343 5343 5342 5342 5342 5342 5342 5342 5341 5341 5340 5340 5341 5342 5342 5343 5344 5344 5345 5346 5346 5346 5347 5347 5348 5349 5350 5350 5350 5350 5350 5351 5351 5351 5350 5350 5350 5349 5349 5348 5347 5347 5346 5346
5340 5339 5339 5339 5338 5337 5337 5337 5336 5335 5334 5334 5335 5335 5336 5336 5337 5337 5338 5339 5339 5340 5340 5341 5342 5343 5343 5343 5342 5342 5342 5342 5342 5342 5342 5342 5341 5341 5340 5339 5339 5338 5338 5338
5333 5333 5333 5333 5333 5332 5331 5331 5330 5329 5329 5328 5328 5328 5329 5329 5329 5330 5330 5331 5332 5333 5334 5334 5336 5336 5336 5336 5335 5335 5334 5334 5334 5333 5333 5334 5333 5332 5331 5330 5330 5329 5329 5330
5326 5326 5326 5326 5326 5325 5324 5324 5324 5323 5322 5322 5322 5321 5321 5321 5322 5322 5322 5323 5324 5326 5327 5328 5328 5329 5329 5328 5328 5327 5327 5326 5325 5324 5324 5323 5323 5322 5322 5321 5321 5321 5321 5321
5319 5319 5319 5318 5318 5318 5318 5318 5317 5316 5316 5316 5315 5315 5314 5314 5314 5315 5316 5317 5318 5319 5320 5321 5321 5321 5321 5321 5321 5320 5318 5317 5316 5315 5314 5314 5313 5313 5313 5312 5312 5312 5312 5312
5312 5312 5312 5312 5311 5311 5311 5311 5311 5310 5309 5309 5309 5308 5308 5308 5308 5309 5309 5310 5311 5313 5313 5313 5313 5313 5314 5314 5313 5312 5310 5309 5308 5307 5306 5305 5305 5304 5304 5304 5303 5303 5304 5304
5305 5306 5306 5305 5305 5305 5304 5304 5304 5303 5302 5302 5302 5302 5302 5302 5303 5303 5303 5304 5304 5305 5306 5306 5307 5307 5307 5306 5305 5304 5302 5301 5300 5299 5298 5297 5297 5297 5296 5296 5296 5295 5295 5296
5299 5299 5299 5299 5298 5298 5297 5298 5297 5297 5296 5295 5296 5296 5296 5296 5296 5296 5296 5297 5298 5298 5298 5299 5300 5300 5300 5298 5297 5296 5295 5294 5294 5293 5292 5291 5290 5289 5289 5288 5288 5287 5288 5288
5292 5292 5292 5292 5292 5292 5292 5292 5291 5290 5290 5289 5289 5289 5289 5290 5290 5289 5289 5289 5290 5291 5291 5292 5293 5293 5291 5290 5290 5289 5288 5288 5287 5287 5286 5284 5283 5282 5282 5281 5281 5281 5281 5282
5286 5286 5286 5287 5287 5287 5286 5286 5285 5284 5284 5283 5283 5283 5283 5283 5283 5283 5283 5283 5283 5284 5284 5284 5285 5285 5284 5283 5283 5282 5282 5282 5281 5280 5279 5278 5278 5277 5276 5275 5275 5275 5276 5276
5280 5280 5280 5280 5280 5280 5280 5279 5278 5278 5278 5278 5277 5276 5276 5276 5276 5276 5276 5277 5277 5277 5278 5278 5278 5277 5277 5277 5276 5276 5276 5275 5275 5275 5274 5274 5273 5272 5271 5271 5271 5271 5271 5272